CW2099 Weather Reports


Display with metric or nautical units.
time (UTC)temp
F
wind
direction
speed
MPH
gust
MPH
rain 1hr
in
rain 24hr
in
rain mn
in
humidity
%
barometer
mb
20240615040505 62 281 0.0 0.0 0.00 0.00 0.00 53 1018.8
20240615040006 62 281 0.0 1.0 0.00 0.00 0.00 52 1018.6
20240615035508 62 281 0.0 1.0 0.00 0.00 0.00 53 1018.5
20240615035005 62 281 0.0 1.0 0.00 0.00 0.00 52 1018.6
20240615034505 62 281 0.0 1.0 0.00 0.00 0.00 52 1018.6
20240615034004 62 281 0.0 2.0 0.00 0.00 0.00 52 1018.8
20240615033504 63 281 0.0 2.0 0.00 0.00 0.00 51 1018.6
20240615033004 63 281 0.0 2.0 0.00 0.00 0.00 50 1018.5
20240615032507 63 281 0.0 2.0 0.00 0.00 0.00 51 1018.5
20240615032003 63 281 0.0 3.0 0.00 0.00 0.00 50 1018.7
20240615031006 63 281 0.0 3.0 0.00 0.00 0.00 50 1018.6
20240615030505 64 281 0.0 3.0 0.00 0.00 0.00 49 1018.6
20240615030005 64 280 1.0 3.0 0.00 0.00 0.00 50 1018.4
20240615025504 64 281 1.0 3.0 0.00 0.00 0.00 49 1018.5
20240615025003 64 282 1.0 3.0 0.00 0.00 0.00 49 1018.4
20240615024505 65 277 2.0 3.0 0.00 0.00 0.00 49 1018.4
20240615024003 65 284 1.0 2.0 0.00 0.00 0.00 49 1018.4
20240615023502 65 286 1.0 4.0 0.00 0.00 0.00 48 1018.2
20240615023003 65 286 2.0 4.0 0.00 0.00 0.00 47 1017.9
20240615022602 65 286 2.0 4.0 0.00 0.00 0.00 47 1017.8
20240615022100 65 288 2.0 4.0 0.00 0.00 0.00 48 1017.7
20240615021056 66 284 1.0 8.0 0.00 0.00 0.00 47 1017.5
20240615020600 66 296 2.0 8.0 0.00 0.00 0.00 47 1017.3
20240615020055 66 291 2.0 7.0 0.00 0.00 0.00 46 1017.3
20240615015555 66 288 2.0 4.0 0.00 0.00 0.00 46 1017.3
20240615015057 66 282 2.0 5.0 0.00 0.00 0.00 47 1017.2
20240615014555 67 284 2.0 8.0 0.00 0.00 0.00 47 1017.2
20240615014053 67 284 3.0 8.0 0.00 0.00 0.00 47 1017.1
20240615013553 67 285 3.0 8.0 0.00 0.00 0.00 47 1017.1
20240615013058 67 272 3.0 6.0 0.00 0.00 0.00 47 1017.0
20240615012553 68 284 2.0 4.0 0.00 0.00 0.00 47 1016.9
20240615012055 68 281 2.0 4.0 0.00 0.00 0.00 45 1017.0
20240615011053 69 273 3.0 5.0 0.00 0.00 0.00 45 1017.0
20240615010552 69 280 3.0 5.0 0.00 0.00 0.00 45 1017.0
20240615010114 69 282 2.0 7.0 0.00 0.00 0.00 43 1017.1
20240615005552 69 277 4.0 7.0 0.00 0.00 0.00 43 1017.0
20240615005055 70 264 3.0 4.0 0.00 0.00 0.00 43 1016.9
20240615004553 70 276 2.0 4.0 0.00 0.00 0.00 41 1016.7
20240615004052 70 270 2.0 4.0 0.00 0.00 0.00 42 1016.7
20240615003555 70 272 3.0 6.0 0.00 0.00 0.00 40 1016.7
20240615003053 70 261 3.0 6.0 0.00 0.00 0.00 44 1016.6
20240615002552 70 255 1.0 3.0 0.00 0.00 0.00 44 1016.7
20240615002052 70 255 1.0 3.0 0.00 0.00 0.00 44 1016.8
20240615001051 70 255 1.0 2.0 0.00 0.00 0.00 47 1016.9
20240615000551 70 255 0.0 0.0 0.00 0.00 0.00 47 1016.9
20240615000051 70 255 0.0 0.0 0.00 0.00 0.00 46 1017.1
20240614235551 70 255 0.0 0.0 0.00 0.00 0.00 45 1017.0
20240614235051 70 255 0.0 0.0 0.00 0.00 0.00 45 1017.1
20240614234551 70 255 0.0 0.0 0.00 0.00 0.00 43 1017.1
20240614234052 71 255 0.0 0.0 0.00 0.00 0.00 44 1017.1
20240614233550 71 255 0.0 0.0 0.00 0.00 0.00 45 1017.1
20240614233052 71 255 0.0 0.0 0.00 0.00 0.00 44 1017.1
20240614232550 71 255 0.0 0.0 0.00 0.00 0.00 43 1017.1
20240614232052 71 255 0.0 0.0 0.00 0.00 0.00 43 1017.0
20240614231052 72 255 0.0 0.0 0.00 0.00 0.00 41 1016.9
20240614230551 72 255 0.0 1.0 0.00 0.00 0.00 39 1016.8
20240614230056 72 255 0.0 2.0 0.00 0.00 0.00 36 1016.8
20240614225551 72 255 0.0 2.0 0.00 0.00 0.00 36 1016.8
20240614225051 72 255 0.0 1.0 0.00 0.00 0.00 35 1016.8
20240614224553 72 255 0.0 2.0 0.00 0.00 0.00 33 1016.8
20240614224051 72 255 0.0 2.0 0.00 0.00 0.00 30 1016.8
20240614223551 72 255 1.0 2.0 0.00 0.00 0.00 30 1016.8
20240614223050 72 255 0.0 0.0 0.00 0.00 0.00 31 1016.9
20240614222550 72 255 0.0 1.0 0.00 0.00 0.00 34 1016.8
20240614222050 72 255 0.0 2.0 0.00 0.00 0.00 33 1016.8
20240614221047 72 255 0.0 2.0 0.00 0.00 0.00 32 1016.7
20240614220548 72 255 0.0 2.0 0.00 0.00 0.00 32 1016.7
20240614220047 72 255 0.0 1.0 0.00 0.00 0.00 33 1016.7
20240614215548 71 255 0.0 0.0 0.00 0.00 0.00 35 1016.7
20240614215047 71 255 0.0 2.0 0.00 0.00 0.00 35 1016.7
20240614214549 71 255 0.0 2.0 0.00 0.00 0.00 32 1016.7
20240614214047 71 255 0.0 0.0 0.00 0.00 0.00 36 1016.8
20240614213549 72 255 0.0 2.0 0.00 0.00 0.00 35 1016.8
20240614213051 72 255 1.0 2.0 0.00 0.00 0.00 32 1016.8
20240614212546 72 255 0.0 2.0 0.00 0.00 0.00 30 1016.7
20240614212046 72 255 0.0 2.0 0.00 0.00 0.00 32 1016.6
20240614211046 72 255 1.0 2.0 0.00 0.00 0.00 29 1016.6
20240614210546 72 255 0.0 2.0 0.00 0.00 0.00 32 1016.7
20240614210050 72 255 0.0 2.0 0.00 0.00 0.00 34 1016.6
20240614205544 72 255 1.0 3.0 0.00 0.00 0.00 33 1016.6
20240614205045 72 255 1.0 3.0 0.00 0.00 0.00 34 1016.6
20240614204545 71 255 0.0 0.0 0.00 0.00 0.00 38 1016.6
20240614204045 72 255 0.0 0.0 0.00 0.00 0.00 38 1016.6
20240614203544 72 255 0.0 1.0 0.00 0.00 0.00 34 1016.6
20240614203046 72 255 0.0 1.0 0.00 0.00 0.00 31 1016.6
20240614202545 72 255 0.0 2.0 0.00 0.00 0.00 31 1016.6
20240614202043 72 255 0.0 2.0 0.00 0.00 0.00 33 1016.6
20240614201045 72 255 1.0 3.0 0.00 0.00 0.00 32 1016.5
20240614200544 72 255 1.0 3.0 0.00 0.00 0.00 36 1016.5
20240614200044 72 255 1.0 3.0 0.00 0.00 0.00 37 1016.4
20240614195543 72 255 2.0 3.0 0.00 0.00 0.00 35 1016.5
20240614195044 72 255 2.0 3.0 0.00 0.00 0.00 33 1016.4
20240614194542 71 255 0.0 3.0 0.00 0.00 0.00 32 1016.5
20240614194042 72 255 1.0 3.0 0.00 0.00 0.00 30 1016.5
20240614193544 72 270 0.0 3.0 0.00 0.00 0.00 35 1016.4
20240614193043 71 246 1.0 3.0 0.00 0.00 0.00 31 1016.5
20240614192543 71 246 0.0 3.0 0.00 0.00 0.00 31 1016.5
20240614192040 71 249 0.0 3.0 0.00 0.00 0.00 40 1016.6
20240614191037 71 249 2.0 3.0 0.00 0.00 0.00 35 1016.5
20240614190536 71 248 1.0 2.0 0.00 0.00 0.00 34 1016.6
20240614190036 71 248 1.0 2.0 0.00 0.00 0.00 35 1016.5
20240614185538 71 246 0.0 3.0 0.00 0.00 0.00 34 1016.5
20240614185036 71 246 0.0 4.0 0.00 0.00 0.00 32 1016.5
20240614184537 71 255 1.0 7.0 0.00 0.00 0.00 34 1016.7
20240614184035 71 254 2.0 7.0 0.00 0.00 0.00 33 1016.6
20240614183534 71 238 0.0 4.0 0.00 0.00 0.00 31 1016.7
20240614183033 71 269 1.0 8.0 0.00 0.00 0.00 32 1016.7
20240614182532 71 250 2.0 8.0 0.00 0.00 0.00 35 1016.7
20240614182034 71 252 1.0 8.0 0.00 0.00 0.00 33 1016.6
20240614181539 71 236 2.0 4.0 0.00 0.00 0.00 34 1016.6
20240614181030 71 259 1.0 3.0 0.00 0.00 0.00 35 1016.5
20240614180529 70 260 0.0 3.0 0.00 0.00 0.00 37 1016.5
20240614180040 70 262 1.0 2.0 0.00 0.00 0.00 35 1016.6
20240614175527 70 262 1.0 2.0 0.00 0.00 0.00 35 1016.7
20240614175028 70 259 1.0 4.0 0.00 0.00 0.00 36 1016.6
20240614174028 69 253 2.0 7.0 0.00 0.00 0.00 35 1016.5
20240614173526 70 265 2.0 4.0 0.00 0.00 0.00 35 1016.5
20240614173025 69 279 1.0 3.0 0.00 0.00 0.00 34 1016.6
20240614172527 69 279 1.0 6.0 0.00 0.00 0.00 36 1016.6
20240614172025 69 249 1.0 3.0 0.00 0.00 0.00 34 1016.7
20240614171524 69 267 1.0 3.0 0.00 0.00 0.00 36 1016.6
20240614171024 69 240 0.0 4.0 0.00 0.00 0.00 37 1016.5
20240614170523 69 268 2.0 4.0 0.00 0.00 0.00 35 1016.5
20240614170024 69 235 1.0 3.0 0.00 0.00 0.00 35 1016.6
20240614165523 69 232 0.0 2.0 0.00 0.00 0.00 37 1016.5
20240614165024 69 232 1.0 4.0 0.00 0.00 0.00 37 1016.5
20240614164025 69 248 1.0 4.0 0.00 0.00 0.00 36 1016.5
20240614163525 69 213 1.0 3.0 0.00 0.00 0.00 36 1016.5
20240614163028 69 223 1.0 3.0 0.00 0.00 0.00 37 1016.5
20240614162523 68 236 1.0 4.0 0.00 0.00 0.00 38 1016.4
20240614162026 68 261 2.0 7.0 0.00 0.00 0.00 38 1016.5
20240614161526 69 229 1.0 3.0 0.00 0.00 0.00 34 1016.4
20240614161023 69 219 1.0 3.0 0.00 0.00 0.00 34 1016.5
20240614160523 68 243 1.0 3.0 0.00 0.00 0.00 38 1016.5
20240614160024 68 243 1.0 3.0 0.00 0.00 0.00 39 1016.3
20240614155519 68 242 1.0 2.0 0.00 0.00 0.00 38 1016.4
20240614155020 67 240 2.0 6.0 0.00 0.00 0.00 40 1016.2
20240614154015 67 259 2.0 6.0 0.00 0.00 0.00 38 1016.1
20240614153513 67 246 1.0 3.0 0.00 0.00 0.00 39 1016.1
20240614153016 67 246 2.0 4.0 0.00 0.00 0.00 38 1016.1
20240614152512 66 246 1.0 6.0 0.00 0.00 0.00 40 1016.1
20240614152012 67 240 2.0 4.0 0.00 0.00 0.00 36 1016.2
20240614151511 67 223 1.0 3.0 0.00 0.00 0.00 40 1016.2
20240614151010 67 249 1.0 3.0 0.00 0.00 0.00 37 1016.2
20240614150510 66 171 0.0 3.0 0.00 0.00 0.00 37 1016.1
20240614150009 66 242 1.0 3.0 0.00 0.00 0.00 39 1016.1
20240614145507 66 242 0.0 4.0 0.00 0.00 0.00 39 1016.0
20240614145007 66 242 1.0 3.0 0.00 0.00 0.00 37 1016.0
20240614144006 66 255 1.0 3.0 0.00 0.00 0.00 41 1016.1
20240614143505 65 255 1.0 3.0 0.00 0.00 0.00 37 1016.1
20240614143012 65 255 0.0 3.0 0.00 0.00 0.00 38 1016.0
20240614142503 65 255 1.0 3.0 0.00 0.00 0.00 38 1016.0
20240614142002 65 255 2.0 5.0 0.00 0.00 0.00 37 1015.9
20240614141505 65 249 2.0 4.0 0.00 0.00 0.00 40 1015.8
20240614141001 65 192 1.0 2.0 0.00 0.00 0.00 40 1015.8
20240614140603 65 192 0.0 2.0 0.00 0.00 0.00 42 1015.8
20240614140501 65 192 0.0 2.0 0.00 0.00 0.00 42 1015.8
20240614140100 65 192 1.0 3.0 0.00 0.00 0.00 42 1015.9
20240614135559 65 192 1.0 3.0 0.00 0.00 0.00 45 1015.8
20240614135059 65 192 0.0 3.0 0.00 0.00 0.00 44 1015.9
20240614134700 64 192 0.0 2.0 0.00 0.00 0.00 47 1015.7
20240614134058 64 192 0.0 2.0 0.00 0.00 0.00 47 1015.7
20240614133555 64 192 0.0 2.0 0.00 0.00 0.00 48 1015.6
20240614133054 63 192 0.0 3.0 0.00 0.00 0.00 51 1015.6
20240614132552 63 192 0.0 3.0 0.00 0.00 0.00 53 1015.5
20240614132051 62 192 0.0 3.0 0.00 0.00 0.00 53 1015.5
20240614131551 62 192 0.0 1.0 0.00 0.00 0.00 55 1015.4
20240614131047 61 192 0.0 2.0 0.00 0.00 0.00 58 1015.5
20240614130546 60 192 0.0 3.0 0.00 0.00 0.00 58 1015.4
20240614130046 60 192 0.0 3.0 0.00 0.00 0.00 59 1015.3
20240614125543 59 190 0.0 0.0 0.00 0.00 0.00 60 1015.3
20240614125044 58 190 0.0 0.0 0.00 0.00 0.00 60 1015.3
20240614124042 58 190 0.0 0.0 0.00 0.00 0.00 62 1015.2
20240614123543 57 190 0.0 0.0 0.00 0.00 0.00 62 1015.2
20240614123058 57 190 0.0 0.0 0.00 0.00 0.00 62 1015.1
20240614122538 57 190 0.0 0.0 0.00 0.00 0.00 63 1014.9
20240614122037 56 190 0.0 0.0 0.00 0.00 0.00 64 1015.0
20240614121545 56 190 0.0 0.0 0.00 0.00 0.00 64 1014.9
20240614121035 56 190 0.0 0.0 0.00 0.00 0.00 64 1014.9
20240614120535 56 190 0.0 0.0 0.00 0.00 0.00 64 1014.8
20240614120033 56 190 0.0 0.0 0.00 0.00 0.00 64 1014.8
20240614115536 55 190 0.0 0.0 0.00 0.00 0.00 65 1014.7
20240614115033 55 190 0.0 0.0 0.00 0.00 0.00 65 1014.6
20240614114631 55 190 0.0 0.0 0.00 0.00 0.00 65 1014.6
20240614114030 55 190 0.0 0.0 0.00 0.00 0.00 65 1014.6
20240614113529 55 190 0.0 0.0 0.00 0.00 0.00 65 1014.6
20240614113027 55 190 0.0 0.0 0.00 0.00 0.00 64 1014.7
20240614112527 55 190 0.0 0.0 0.00 0.00 0.00 65 1014.6
20240614112027 54 190 0.0 0.0 0.00 0.00 0.00 65 1014.6
20240614111540 54 190 0.0 0.0 0.00 0.00 0.00 65 1014.6
20240614111027 54 190 0.0 0.0 0.00 0.00 0.00 66 1014.5
20240614110527 54 190 0.0 0.0 0.00 0.00 0.00 66 1014.7
20240614110036 54 190 0.0 0.0 0.00 0.00 0.00 65 1014.5
20240614105526 54 190 0.0 0.0 0.00 0.00 0.00 65 1014.5
20240614105025 54 190 0.0 0.0 0.00 0.00 0.00 65 1014.4
20240614104626 54 190 0.0 0.0 0.00 0.00 0.00 65 1014.2
20240614104023 54 190 0.0 0.0 0.00 0.00 0.00 65 1014.2
20240614103524 54 190 0.0 0.0 0.00 0.00 0.00 65 1014.0
20240614103033 54 190 0.0 0.0 0.00 0.00 0.00 65 1014.1
20240614102523 54 190 0.0 0.0 0.00 0.00 0.00 65 1014.0
20240614102022 54 190 0.0 0.0 0.00 0.00 0.00 64 1013.9
20240614101534 54 190 0.0 0.0 0.00 0.00 0.00 64 1013.9
20240614101021 54 190 0.0 0.0 0.00 0.00 0.00 64 1013.8
20240614100522 54 190 0.0 0.0 0.00 0.00 0.00 64 1013.7
20240614100027 54 190 0.0 0.0 0.00 0.00 0.00 63 1013.8
20240614095521 54 190 0.0 0.0 0.00 0.00 0.00 63 1013.7
20240614095019 54 190 0.0 0.0 0.00 0.00 0.00 64 1013.6
20240614094618 54 190 0.0 0.0 0.00 0.00 0.00 63 1013.5
20240614094022 54 190 0.0 0.0 0.00 0.00 0.00 63 1013.4
20240614093517 54 190 0.0 0.0 0.00 0.00 0.00 64 1013.3
20240614093016 54 190 0.0 0.0 0.00 0.00 0.00 63 1013.2
20240614092517 55 190 0.0 0.0 0.00 0.00 0.00 63 1013.2
20240614092016 55 190 0.0 0.0 0.00 0.00 0.00 63 1013.2
20240614091523 55 190 0.0 0.0 0.00 0.00 0.00 64 1013.1
20240614091019 55 190 0.0 0.0 0.00 0.00 0.00 63 1013.2
20240614090513 55 190 0.0 0.0 0.00 0.00 0.00 63 1013.1
20240614090013 55 190 0.0 0.0 0.00 0.00 0.00 63 1013.0
20240614085513 55 190 0.0 0.0 0.00 0.00 0.00 63 1012.9
20240614085013 55 190 0.0 0.0 0.00 0.00 0.00 63 1012.9
20240614084612 55 190 0.0 0.0 0.00 0.00 0.00 63 1012.9
20240614084012 55 190 0.0 0.0 0.00 0.00 0.00 63 1012.9
20240614083511 55 190 0.0 0.0 0.00 0.00 0.00 63 1012.9
20240614083015 55 190 0.0 0.0 0.00 0.00 0.00 63 1012.8
20240614082510 55 190 0.0 0.0 0.00 0.00 0.00 63 1012.8
20240614082012 55 190 0.0 0.0 0.00 0.00 0.00 63 1012.8
20240614081509 55 190 0.0 0.0 0.00 0.00 0.00 63 1012.5
20240614081010 55 190 0.0 0.0 0.00 0.00 0.00 62 1012.5
20240614080513 55 190 0.0 0.0 0.00 0.00 0.00 63 1012.5
20240614080009 55 190 0.0 0.0 0.00 0.00 0.00 62 1012.5
20240614075507 55 190 0.0 0.0 0.00 0.00 0.00 62 1012.4
20240614075007 55 190 0.0 0.0 0.00 0.00 0.00 62 1012.3
20240614074607 54 190 0.0 0.0 0.00 0.00 0.00 63 1012.3
20240614074008 54 190 0.0 0.0 0.00 0.00 0.00 63 1012.4
20240614073507 54 190 0.0 0.0 0.00 0.00 0.00 62 1012.3
20240614073007 54 190 0.0 0.0 0.00 0.00 0.00 63 1012.2
20240614072509 54 190 0.0 0.0 0.00 0.00 0.00 63 1012.3
20240614072006 54 190 0.0 0.0 0.00 0.00 0.00 63 1012.3
20240614071508 54 190 0.0 0.0 0.00 0.00 0.00 63 1012.2
20240614071005 54 190 0.0 0.0 0.00 0.00 0.00 63 1012.0
20240614070504 54 190 0.0 0.0 0.00 0.00 0.00 64 1012.1
20240614070005 54 190 0.0 0.0 0.00 0.00 0.00 64 1012.1
20240614065504 54 190 0.0 0.0 0.00 0.00 0.00 63 1012.0
20240614065003 54 190 0.0 0.0 0.00 0.00 0.00 64 1012.1
20240614064603 54 190 0.0 0.0 0.00 0.00 0.00 64 1012.0
20240614064002 54 190 0.0 0.0 0.00 0.00 0.00 64 1012.1
20240614063502 54 190 0.0 0.0 0.00 0.00 0.00 64 1011.9
20240614063001 54 190 0.0 0.0 0.00 0.00 0.00 64 1011.8
20240614062601 54 190 0.0 0.0 0.00 0.00 0.00 64 1011.8
20240614062100 54 190 0.0 0.0 0.00 0.00 0.00 63 1011.7
20240614061559 54 190 0.0 0.0 0.00 0.00 0.00 63 1011.7
20240614061059 54 190 0.0 0.0 0.00 0.00 0.00 63 1011.7
20240614060557 54 190 0.0 0.0 0.00 0.00 0.00 63 1011.5
20240614060100 54 190 0.0 0.0 0.00 0.00 0.00 63 1011.4
20240614055556 54 190 0.0 0.0 0.00 0.00 0.00 63 1011.5
20240614055056 54 190 0.0 0.0 0.00 0.00 0.00 63 1011.2
20240614054600 54 190 0.0 0.0 0.00 0.00 0.00 63 1011.4
20240614054055 54 190 0.0 0.0 0.00 0.00 0.00 63 1011.3
20240614053555 54 190 0.0 0.0 0.00 0.00 0.00 62 1011.3
20240614053055 54 190 0.0 0.0 0.00 0.00 0.00 61 1011.3
20240614052553 54 190 0.0 0.0 0.00 0.00 0.00 61 1011.3
20240614052053 55 190 0.0 0.0 0.00 0.00 0.00 61 1011.1
20240614051555 55 190 0.0 0.0 0.00 0.00 0.00 61 1011.0
20240614051052 55 190 0.0 0.0 0.00 0.00 0.00 60 1011.1
20240614050552 55 190 0.0 0.0 0.00 0.00 0.00 60 1011.1
20240614050050 55 190 0.0 0.0 0.00 0.00 0.00 60 1011.0
20240614045549 55 190 0.0 0.0 0.00 0.00 0.00 59 1011.1
20240614045052 56 190 0.0 0.0 0.00 0.00 0.00 59 1011.0
20240614044547 56 190 0.0 0.0 0.00 0.00 0.00 58 1011.1
20240614044047 56 190 0.0 0.0 0.00 0.00 0.00 58 1011.0
20240614043550 56 190 0.0 0.0 0.00 0.00 0.00 57 1010.9
20240614043046 56 190 0.0 0.0 0.00 0.00 0.00 56 1010.9
20240614042544 56 190 0.0 0.0 0.00 0.00 0.00 56 1010.8
20240614042046 56 190 0.0 0.0 0.00 0.00 0.00 56 1010.7
20240614041545 57 190 0.0 0.0 0.00 0.00 0.00 56 1010.7
20240614041043 57 190 0.0 0.0 0.00 0.00 0.00 56 1010.6
20240614040542 57 190 0.0 0.0 0.00 0.00 0.00 56 1010.5